Location: Alfortville
(48.8058°N, 2.4204°E)
Time: 05:19:14
(UTC+00:00)

USA 229 DEB - Pass Details

Date: 31 May 2022
Orbit: 934 x 1278 km, 63.4° (Epoch: 24 May)

Event Time Altitude Azimuth Distance (km) Brightness Sun altitude
Rises 00:58:26 0° 311° (NW) 4,024 7.0 -17.6°
Reaches altitude 10° 01:01:48 10° 296° (WNW) 3,115 6.2 -17.4°
Maximum altitude 01:07:05 21° 251° (WSW) 2,444 5.2 -17.1°
Enters shadow 01:09:15 19° 230° (SW) 2,597 5.2 -17.0°
